Location: Passau
(48.5721°N, 13.4363°E)
Time: 03:44:45
(UTC+02:00)

ISS - Pass Details

Date: 08 January 2018
Orbit: 401 x 409 km, 51.6° (Epoch: 20 August)

Event Time Altitude Azimuth Distance (km) Brightness Sun altitude
Exits shadow 05:14:37 25° 63° (ENE) 897 -1.6 -26.0°
Drops below altitude 10° 05:16:17 10° 76° (ENE) 1,512 0.0 -25.7°
Enters shadow 06:11:27 -71° 280° (W) 12,479 3.7 -16.7°
Maximum altitude 06:49:55 83° 20° (NNE) 431 -3.7 -10.7°
